• In Kazakhstan
  • List of Countries
  • For 7 days
  • Water Temperature
  • Satellite Maps
  • Weather Map
  • News
  • Weather Widgets
  • user-avatar
    Login

    Hourly Weather Saint Louis

    Today, 20 November, Monday

    Time Temperature Precipitation Wind Pressure Humidity
    00:00 +1°C° 0 mm 3 mps 751 mmHg 53%
    01:00 +1°C° 0 mm 3 mps 751 mmHg 55%
    02:00 +1°C° 0 mm 3 mps 751 mmHg 57%
    03:00 +1°C° 0 mm 3 mps 750 mmHg 59%
    04:00 0°C° 0 mm 4 mps 750 mmHg 59%
    05:00 +1°C° 0 mm 4 mps 750 mmHg 60%
    06:00 +1°C° 0 mm 3 mps 750 mmHg 60%
    07:00 +3°C° 0 mm 4 mps 749 mmHg 55%
    08:00 +5°C° 0 mm 5 mps 749 mmHg 51%
    09:00 +5°C° 0 mm 6 mps 749 mmHg 46%
    10:00 +8°C° 0 mm 6 mps 749 mmHg 43%
    11:00 +10°C° 0 mm 6 mps 748 mmHg 39%
    12:00 +12°C° 0 mm 7 mps 747 mmHg 36%
    13:00 +13°C° 0 mm 6 mps 747 mmHg 36%
    14:00 +14°C° 0 mm 6 mps 746 mmHg 36%
    15:00 +14°C° 0 mm 6 mps 746 mmHg 37%
    16:00 +11°C° 0 mm 6 mps 745 mmHg 41%
    17:00 +10°C° 0 mm 6 mps 745 mmHg 44%
    18:00 +8°C° 0 mm 5 mps 745 mmHg 48%
    19:00 +8°C° 0 mm 5 mps 745 mmHg 50%
    20:00 +7°C° 0 mm 5 mps 745 mmHg 52%
    21:00 +7°C° 0 mm 5 mps 745 mmHg 54%
    22:00 +7°C° 0 mm 5 mps 744 mmHg 55%
    23:00 +7°C° 0 mm 5 mps 744 mmHg 56%

    Tomorrow, 21 November, Tuesday

    Time Temperature Precipitation Wind Pressure Humidity
    00:00 +7°C° 0 mm 5 mps 744 mmHg 57%
    01:00 +7°C° 0 mm 5 mps 744 mmHg 59%
    02:00 +7°C° 0 mm 5 mps 743 mmHg 61%
    03:00 +6°C° 0 mm 5 mps 743 mmHg 64%
    04:00 +6°C° 0 mm 4 mps 743 mmHg 65%
    05:00 +6°C° 0 mm 4 mps 743 mmHg 67%
    06:00 +5°C° 0 mm 4 mps 743 mmHg 69%
    07:00 +6°C° 0 mm 4 mps 744 mmHg 67%
    08:00 +7°C° 0 mm 4 mps 744 mmHg 64%
    09:00 +8°C° 0 mm 4 mps 744 mmHg 62%
    10:00 +10°C° 0 mm 4 mps 745 mmHg 61%
    11:00 +11°C° 0 mm 4 mps 745 mmHg 59%
    12:00 +11°C° 0 mm 4 mps 746 mmHg 57%
    13:00 +10°C° 0 mm 5 mps 746 mmHg 55%
    14:00 +9°C° 0 mm 5 mps 747 mmHg 52%
    15:00 +9°C° 0 mm 6 mps 748 mmHg 49%
    16:00 +7°C° 0 mm 5 mps 749 mmHg 49%
    17:00 +6°C° 0 mm 4 mps 749 mmHg 48%
    18:00 +4°C° 0 mm 4 mps 750 mmHg 47%
    19:00 +3°C° 0 mm 4 mps 751 mmHg 49%
    20:00 +3°C° 0 mm 4 mps 752 mmHg 51%
    21:00 +1°C° 0 mm 4 mps 753 mmHg 53%
    22:00 0°C° 0 mm 4 mps 753 mmHg 54%
    23:00 +1°C° 0 mm 3 mps 754 mmHg 56%

    Day after tomorrow, 22 November, Wednesday

    Time Temperature Precipitation Wind Pressure Humidity
    00:00 0°C° 0 mm 3 mps 754 mmHg 57%
    01:00 0°C° 0 mm 3 mps 754 mmHg 58%
    02:00 -1°C° 0 mm 3 mps 755 mmHg 58%
    03:00 -1°C° 0 mm 3 mps 755 mmHg 59%
    04:00 -2°C° 0 mm 3 mps 755 mmHg 58%
    05:00 -2°C° 0 mm 2 mps 755 mmHg 58%
    06:00 -3°C° 0 mm 2 mps 756 mmHg 58%
    07:00 -2°C° 0 mm 2 mps 756 mmHg 52%
    08:00 -1°C° 0 mm 2 mps 756 mmHg 47%
    09:00 +1°C° 0 mm 2 mps 757 mmHg 42%
    10:00 +2°C° 0 mm 2 mps 756 mmHg 38%
    11:00 +3°C° 0 mm 2 mps 756 mmHg 34%
    12:00 +4°C° 0 mm 2 mps 755 mmHg 30%
    13:00 +5°C° 0 mm 2 mps 755 mmHg 30%
    14:00 +5°C° 0 mm 2 mps 754 mmHg 30%
    15:00 +6°C° 0 mm 1 mps 754 mmHg 29%
    16:00 +5°C° 0 mm 1 mps 753 mmHg 33%
    17:00 +4°C° 0 mm 1 mps 753 mmHg 36%
    18:00 +2°C° 0 mm 0 mps 753 mmHg 39%
    19:00 +2°C° 0 mm 0 mps 753 mmHg 40%
    20:00 +3°C° 0 mm 1 mps 753 mmHg 40%
    21:00 +3°C° 0 mm 1 mps 753 mmHg 41%
    22:00 +3°C° 0 mm 1 mps 752 mmHg 41%
    23:00 +3°C° 0 mm 1 mps 752 mmHg 41%

    23 November, Thursday

    Time Temperature Precipitation Wind Pressure Humidity
    00:00 +3°C° 0 mm 1 mps 752 mmHg 42%
    01:00 +2°C° 0 mm 2 mps 751 mmHg 42%
    02:00 +2°C° 0 mm 2 mps 751 mmHg 42%
    03:00 +2°C° 0 mm 2 mps 750 mmHg 42%
    04:00 +1°C° 0 mm 3 mps 750 mmHg 43%
    05:00 +1°C° 0 mm 3 mps 749 mmHg 43%
    06:00 +1°C° 0 mm 3 mps 749 mmHg 44%
    07:00 +2°C° 0 mm 3 mps 749 mmHg 44%
    08:00 +3°C° 0 mm 3 mps 749 mmHg 43%
    09:00 +3°C° 0 mm 4 mps 749 mmHg 43%
    10:00 +5°C° 0 mm 4 mps 748 mmHg 42%
    11:00 +8°C° 0 mm 3 mps 748 mmHg 41%
    12:00 +9°C° 0 mm 3 mps 747 mmHg 40%
    13:00 +10°C° 0 mm 3 mps 747 mmHg 43%
    14:00 +10°C° 0 mm 3 mps 747 mmHg 45%
    15:00 +11°C° 0 mm 3 mps 746 mmHg 47%
    16:00 +9°C° 0 mm 2 mps 747 mmHg 53%
    17:00 +8°C° 0 mm 2 mps 747 mmHg 60%
    18:00 +6°C° 0 mm 2 mps 747 mmHg 66%
    19:00 +6°C° 0 mm 2 mps 747 mmHg 68%
    20:00 +6°C° 0 mm 1 mps 748 mmHg 71%
    21:00 +6°C° 0 mm 1 mps 748 mmHg 73%
    22:00 +5°C° 0 mm 1 mps 748 mmHg 74%
    23:00 +5°C° 0 mm 1 mps 748 mmHg 75%

    24 November, Friday

    Time Temperature Precipitation Wind Pressure Humidity
    00:00 +5°C° 0 mm 1 mps 748 mmHg 75%
    01:00 +4°C° 0 mm 1 mps 748 mmHg 75%
    02:00 +4°C° 0 mm 1 mps 748 mmHg 75%
    03:00 +4°C° 0 mm 1 mps 747 mmHg 76%
    04:00 +4°C° 0 mm 1 mps 747 mmHg 77%
    05:00 +4°C° 0 mm 1 mps 747 mmHg 78%
    06:00 +3°C° 0 mm 2 mps 747 mmHg 79%
    07:00 +4°C° 0 mm 2 mps 747 mmHg 75%
    08:00 +5°C° 0 mm 3 mps 746 mmHg 71%
    09:00 +7°C° 0 mm 3 mps 746 mmHg 66%
    10:00 +8°C° 0 mm 4 mps 745 mmHg 60%
    11:00 +12°C° 0 mm 4 mps 744 mmHg 53%
    12:00 +14°C° 0 mm 5 mps 743 mmHg 47%
    13:00 +15°C° 0 mm 5 mps 742 mmHg 45%
    14:00 +16°C° 0 mm 5 mps 741 mmHg 44%
    15:00 +17°C° 0 mm 6 mps 740 mmHg 43%
    16:00 +16°C° 0 mm 5 mps 740 mmHg 48%
    17:00 +15°C° 0 mm 5 mps 740 mmHg 52%
    18:00 +13°C° 0 mm 5 mps 740 mmHg 56%
    19:00 +14°C° 0 mm 5 mps 740 mmHg 58%
    20:00 +14°C° 0 mm 5 mps 740 mmHg 59%
    21:00 +14°C° 0 mm 5 mps 741 mmHg 60%
    22:00 +14°C° 0 mm 5 mps 741 mmHg 64%
    23:00 +13°C° 0 mm 4 mps 741 mmHg 68%

    25 November, Saturday

    Time Temperature Precipitation Wind Pressure Humidity
    00:00 +12°C° 0 mm 3 mps 741 mmHg 72%
    01:00 +11°C° 0 mm 3 mps 742 mmHg 74%
    02:00 +10°C° 0 mm 3 mps 742 mmHg 76%
    03:00 +9°C° 0 mm 3 mps 743 mmHg 78%
    04:00 +8°C° 0 mm 3 mps 743 mmHg 78%
    05:00 +8°C° 0 mm 3 mps 743 mmHg 79%
    06:00 +7°C° 0 mm 3 mps 743 mmHg 79%
    07:00 +7°C° 0 mm 4 mps 744 mmHg 69%
    08:00 +8°C° 0 mm 4 mps 744 mmHg 60%
    09:00 +9°C° 0 mm 5 mps 745 mmHg 50%
    10:00 +10°C° 0 mm 6 mps 745 mmHg 44%
    11:00 +11°C° 0 mm 7 mps 745 mmHg 39%
    12:00 +12°C° 0 mm 7 mps 745 mmHg 34%
    13:00 +12°C° 0 mm 7 mps 745 mmHg 35%
    14:00 +12°C° 0 mm 7 mps 745 mmHg 37%
    15:00 +11°C° 0 mm 7 mps 745 mmHg 38%
    16:00 +10°C° 0 mm 6 mps 746 mmHg 42%
    17:00 +8°C° 0 mm 5 mps 746 mmHg 47%
    18:00 +7°C° 0 mm 4 mps 747 mmHg 52%
    19:00 +6°C° 0 mm 4 mps 747 mmHg 54%
    20:00 +5°C° 0 mm 4 mps 748 mmHg 57%
    21:00 +5°C° 0 mm 4 mps 748 mmHg 60%
    22:00 +4°C° 0 mm 4 mps 748 mmHg 60%
    23:00 +3°C° 0 mm 4 mps 748 mmHg 61%
    Show more